Date,TemperatureHighF,TemperatureAvgF,TemperatureLowF,DewpointHighF,DewpointAvgF,DewpointLowF,HumidityHigh,HumidityAvg,HumidityLow,PressureMaxIn,PressureMinIn,WindSpeedMaxMPH,WindSpeedAvgMPH,GustSpeedMaxMPH,PrecipitationSumIn
2013-10-1,66.8,59.3,51.5,53.8,44.3,34.1,84,60,33,27.82,27.54,22,4,23,0.00
2013-10-2,63.6,53.2,45.4,46.4,40.3,36.8,92,64,39,28.03,27.82,17,2,17,0.01
2013-10-3,59.9,50.2,42.0,48.0,45.0,40.9,97,83,58,28.06,27.97,13,1,15,0.05
2013-10-4,52.9,48.5,45.0,46.7,44.1,38.6,96,85,67,28.16,28.06,15,1,15,0.04
2013-10-5,44.9,40.9,38.5,41.0,39.3,37.3,97,94,79,28.14,27.82,20,4,20,0.43
2013-10-6,45.8,42.7,41.0,44.5,41.6,40.2,97,96,91,27.84,27.67,16,3,17,0.67
2013-10-7,53.4,41.9,31.6,41.3,37.8,30.6,97,86,57,27.92,27.69,19,2,19,0.01
2013-10-8,63.6,52.0,31.6,48.0,42.5,30.6,97,72,55,27.92,27.76,21,4,21,0.00
2013-10-9,72.0,59.5,49.5,54.5,49.3,45.9,94,70,51,28.03,27.84,17,2,17,0.00
2013-10-10,68.0,58.2,51.8,52.4,48.2,44.4,90,71,50,28.04,27.97,15,2,15,0.00
2013-10-11,65.0,57.6,50.6,54.7,50.0,45.2,86,76,68,27.99,27.74,20,4,21,0.00
2013-10-12,57.8,52.9,44.2,53.7,47.1,42.2,95,81,62,27.92,27.66,20,5,22,0.02
2013-10-13,50.8,41.7,30.5,42.6,35.3,29.0,95,80,52,28.33,27.92,20,3,20,0.00
2013-10-14,50.1,39.8,27.2,40.4,34.3,26.2,97,82,58,28.34,28.17,7,0,8,0.18
2013-10-15,40.8,39.6,37.9,39.8,38.6,36.6,96,96,94,28.17,27.83,16,3,18,0.36
2013-10-16,48.9,38.7,29.7,37.0,33.7,28.5,100,84,54,27.83,27.78,13,2,15,0.00
2013-10-17,44.0,38.8,31.6,41.8,37.0,30.6,100,93,84,27.77,27.74,10,1,12,0.31
2013-10-18,44.1,37.1,31.1,36.2,32.6,27.8,95,85,56,27.82,27.73,12,2,12,0.02
2013-10-19,40.2,32.2,27.8,35.4,30.2,26.6,96,92,77,27.73,27.61,6,0,6,0.14
2013-10-20,39.9,33.1,27.8,36.0,30.9,26.8,97,92,70,27.69,27.65,8,0,9,0.01
2013-10-21,32.2,29.2,27.1,31.2,27.7,24.7,96,94,89,27.74,27.59,18,5,18,0.12
2013-10-22,31.0,28.2,25.9,28.3,25.1,22.9,100,88,76,27.89,27.74,16,4,16,0.00
2013-10-23,29.7,28.3,25.1,27.6,24.4,21.9,93,85,77,27.90,27.80,21,4,21,0.00
2013-10-24,35.7,31.2,28.9,29.4,27.2,24.5,95,85,68,28.10,27.89,11,3,15,0.03
2013-10-25,38.4,33.5,29.3,36.3,29.7,25.8,94,86,71,28.10,27.54,20,4,20,0.03
2013-10-26,37.4,33.0,30.6,34.6,27.7,23.6,94,81,65,27.92,27.55,24,5,24,0.01
2013-10-27,34.4,30.8,23.1,30.7,26.5,16.2,93,84,71,28.20,27.69,21,4,22,0.00
2013-10-28,31.8,23.0,14.9,18.6,16.0,12.2,90,75,49,28.41,28.19,15,2,16,0.00
2013-10-29,35.9,23.7,10.7,25.2,18.3,7.8,94,81,59,28.36,28.06,11,1,12,0.00
2013-10-30,38.8,32.2,21.9,37.8,30.1,19.7,97,92,81,28.06,27.63,12,1,13,0.03
2013-10-31,41.0,39.0,36.0,40.5,38.3,35.3,98,97,97,27.65,27.30,11,1,13,0.00